Other Surface Observations
Issued by NWS Tucson, AZ

Home | Current Version | Previous Version | Text Only | Print | Product List | Glossary On
Versions: 1 2 3 4 5 6 7 8 9 10 11 12 13 14 15 16 17 18 19 20 21 22 23 24 25 26 27 28 29 30 31 32 33 34 35 36 37 38 39 40 41 42 43 44 45 46 47 48 49 50
919
SXUS55 KTWC 031915
OSOTWC

WEATHER ROUNDUP FOR SOUTHEAST ARIZONA
NATIONAL WEATHER SERVICE TUCSON AZ
1215 PM MST SAT DEC 03 2016

AZZ504>506-514-032015-
LOCATION       SKY/WX    TMP DP  RH WIND       PRES   REMARKS
TUCSON         SUNNY     58  27  30 N10       29.95F
DAVIS-MONTHAN  SUNNY     55  27  33 NW14      29.94F
CHILDRENS PARK N/A      N/A N/A  35 W5                PIMA CO DEQ
ALVERNON/22ND  N/A       50 N/A N/A NW4               PIMA CO DEQ
CHERRY/GLENN   N/A       52 N/A N/A W4                PIMA CO DEQ
TANGERINE      N/A       53 N/A N/A W3                PIMA CO DEQ
CONTL RANCH    N/A       51  25  36 SW4               PIMA CO DEQ
GRANT/1ST      N/A       51  25  36 W4                PIMA CO DEQ
CRAYCROFT/22ND N/A       50  25  38 N/A               PIMA CO DEQ
GOLFLINKS/KOLB N/A       50  25  38 N/A               PIMA CO DEQ
AJO/12TH       N/A       51  24  35 SW4               PIMA CO DEQ
FAIRGROUNDS    N/A       51 N/A N/A N/A               PIMA CO DEQ
SAGUARO        N/A       58  28  31 S4                *SABINO CYN
SAN CARLOS     N/A       56  25  30 W4                *SAN CARLOS
GREEN VALLEY   N/A       54  28  36 S8                PIMA CO DEQ
HORSE CAMP CYN N/A       49  27  42 N14G20            *ARAVAIPA CYN
RINCON MTNS    N/A       32  31  96 NE13G26           *NR MANNING CAMP
$$

AZZ509>511-032015-
LOCATION       SKY/WX    TMP DP  RH WIND       PRES   REMARKS
SAFFORD        SUNNY     57  35  43 S8        29.95F
STRAY HORSE    N/A       42  29  59 N/A               *
TRAIL CABIN    N/A       48  33  55 E5G10             *N OF GRANVILLE
BLACK HILLS    NOT AVBL
DRY LAKE       N/A       46  28  50 SE6G11            *NATANES MTNS
NOON CREEK     N/A       53  34  49 E4                *PINALENO MTNS
COLUMBINE      N/A       43  28  54 E3G10             *PINALENO MTNS
GUTHRIE        N/A       42  31  64 NE3G10            *SW OF GUTHRIE
$$

AZZ502-503-513-032015-
LOCATION       SKY/WX    TMP DP  RH WIND       PRES   REMARKS
NOGALES        PTSUNNY   55  35  47 N7        29.91F
SELLS          N/A       61  26  26 NE7G13            *
SASABE         N/A       55  26  32 N9G15             *ALTAR VLY
HOPKINS        N/A       47  25  42 E17G30            *SANTA RITA MTNS
CARR CYN       N/A       44  38  78 CALM              *W OF HEREFORD
$$

AZZ507-508-512-032015-
LOCATION       SKY/WX    TMP DP  RH WIND       PRES   REMARKS
SIERRA VISTA   CLOUDY    50  37  62 VRB3      29.95F
DOUGLAS        CLOUDY    48  38  68 E17G25    29.94F
EMPIRE MTNS    NOT AVBL
MULESHOE RANCH N/A       52  35  52 E8G20             *PRESERVE
HEADQUARTERS   N/A       41  35  80 E15G29            *CHIRICAHUA MTNS
$$

.............................NOTES.............................
THIS IS AN AUTOMATED COLLECTIVE WITH MINIMAL QUALITY CONTROL.
PIMA CO DEQ SITES HAVE NONSTANDARD WIND SENSOR HEIGHTS.
PIMA CO DEQ SITES DO NOT REPORT WIND GUSTS.
* INDICATES WIND SENSORS LOCATED AT 20 FEET INSTEAD OF 33 FEET.
..............................KEY..............................
SKY/WX - SKY CONDITION/WEATHER
TMP    - TEMPERATURE IN FAHRENHEIT
DP     - DEWPOINT IN FAHRENHEIT
RH     - RELATIVE HUMIDITY IN PERCENT
WIND   - DIRECTION AND SPEED IN MILES PER HOUR (MPH)
VRB    - VARIABLE WIND DIRECTION
PRES   - MEAN SEA LEVEL PRESSURE IN INCHES OF MERCURY
         F - FALLING PRESSURE   R - RISING PRESSURE
         S - STEADY PRESSURE
VSB    - VISIBILITY IN MILES
HX     - HEAT INDEX IN FAHRENHEIT
WCI    - WIND CHILL INDEX IN FAHRENHEIT
N/A    - NOT AVAILABLE
AFB    - AIR FORCE BASE
         DAVIS-MONTHAN IS DAVIS-MONTHAN AIR FORCE BASE
CYN    - CANYON
MTNS   - MOUNTAINS
NCA    - NATIONAL CONSERVATION AREA
NR     - NEAR
VLY    - VALLEY
CONTL  - CONTINENTAL
PIMA CO DEQ - PIMA COUNTY DEPT OF ENVIRONMENTAL QUALITY



USA.gov is the U.S. government's official web portal to all federal, state and local government web resources and services.